Theta_e
318 318 318 317 315 313 312 313 314 316 316 316 315 318 321 321 321 324 326 323 323 320 318 322 321 322 322 324 324 324 325 327 326 327 327 327 326 326 326 325 325 325 324 326 333
316 317 317 316 315 313 312 313 314 316 317 317 317 321 320 319 321 325 324 324 319 319 324 324 326 325 326 325 325 324 326 326 326 327 327 326 327 326 326 326 326 326 325 323 326
312 315 316 315 314 312 312 314 316 317 318 317 319 320 319 318 327 327 321 320 320 323 324 324 324 325 326 327 327 326 327 327 327 328 327 326 325 326 327 327 328 328 328 326 324
310 311 313 314 313 311 312 314 317 318 318 317 321 319 318 321 330 326 317 317 319 322 323 323 324 326 328 329 328 328 327 326 327 325 325 325 327 327 328 329 328 328 328 328 327
310 310 310 312 312 311 313 316 318 318 318 321 319 318 320 327 327 324 318 318 320 322 323 324 325 327 329 329 328 328 328 327 327 327 328 328 328 329 328 327 327 327 327 328 328
312 310 310 310 311 311 314 317 318 318 319 319 317 316 321 328 323 324 322 322 323 324 325 325 327 327 328 328 328 328 328 328 328 328 328 328 328 327 327 326 327 326 326 327 326
318 311 310 310 310 312 315 319 318 319 319 317 316 316 322 325 322 322 321 322 323 324 325 325 326 326 326 327 327 327 328 327 327 327 327 326 325 325 324 325 324 325 325 325 325
318 316 311 310 311 313 317 319 319 320 317 315 314 318 324 323 323 322 322 322 322 322 321 322 321 324 325 326 326 326 326 328 328 327 326 325 325 323 324 324 324 325 324 323 324
317 318 314 311 311 315 318 318 319 317 314 313 315 320 326 319 319 320 320 321 321 320 319 319 321 323 322 325 326 325 327 329 327 325 322 323 324 323 323 323 323 323 324 325 324
319 317 318 312 312 316 319 319 314 312 312 314 316 321 321 322 318 320 319 319 323 323 322 321 322 322 323 325 328 327 327 327 322 321 322 321 322 323 323 323 323 324 324 324 324
320 318 318 315 315 317 319 310 310 312 312 321 324 324 321 320 317 321 323 324 326 326 327 327 327 328 325 325 325 323 323 321 320 320 322 324 324 324 323 323 323 323 324 324 324
320 319 318 317 317 318 316 318 318 318 322 316 321 321 316 317 319 319 321 325 327 329 325 329 329 324 323 323 323 324 323 322 322 323 323 324 323 322 323 324 323 322 323 324 326
318 320 318 318 317 319 316 317 317 317 321 322 320 323 321 315 319 320 320 322 323 324 323 326 327 324 324 322 324 323 322 324 324 324 324 323 325 324 323 322 322 323 325 324 323
319 320 318 317 316 316 318 317 318 312 324 324 318 319 320 318 320 319 319 319 319 321 322 322 322 323 322 323 324 327 324 323 323 322 325 324 327 324 323 322 323 323 322 320 319
314 319 317 317 317 317 316 317 312 316 326 323 320 316 318 318 322 320 317 318 320 317 317 321 320 320 322 322 322 323 322 321 321 322 325 324 324 324 322 323 322 320 319 317 315
314 317 317 316 316 317 315 312 311 319 325 326 318 316 317 317 320 316 316 313 315 316 316 316 318 317 319 319 318 318 320 322 321 323 326 324 324 325 323 321 320 319 316 313 313
312 317 316 315 317 316 310 310 315 320 321 325 318 317 319 319 318 318 316 314 316 316 317 315 315 317 316 318 320 321 322 325 326 326 326 323 323 323 321 321 319 316 314 313 312
312 313 315 315 315 311 311 316 321 322 322 324 318 318 320 317 316 319 319 317 316 317 321 319 319 316 317 316 321 322 322 324 325 325 324 322 322 322 319 319 317 315 314 312 312
312 313 315 316 311 310 314 318 320 322 322 324 318 320 321 317 318 320 321 320 318 319 322 322 321 318 318 317 319 321 321 319 321 320 323 321 320 318 318 318 317 315 314 311 310
312 313 315 315 310 311 316 317 320 322 322 320 320 320 323 319 318 321 322 320 321 319 320 321 324 317 315 316 316 318 317 320 319 323 322 319 319 319 318 315 313 312 310 308 307
312 315 312 309 310 313 315 316 309 313 318 318 320 319 322 319 317 321 322 318 317 317 318 319 322 321 314 315 316 315 314 313 313 318 322 320 320 315 313 311 310 308 307 306 306
312 309 307 308 311 310 314 312 306 311 311 312 317 320 320 318 316 318 318 317 314 313 314 314 315 321 316 311 310 310 312 314 323 322 320 318 319 312 309 308 307 307 306 306 306
309 302 308 308 312 309 304 304 304 307 307 309 313 315 316 318 318 317 316 313 310 311 312 310 314 315 311 310 310 309 310 312 316 313 317 317 316 308 307 307 307 306 305 305 306
300 304 300 305 303 310 309 309 308 306 307 308 310 312 313 313 311 314 313 311 308 309 308 308 311 313 316 312 313 313 312 311 313 313 311 312 309 307 307 306 305 304 305 306 306
301 305 306 307 306 309 310 309 308 309 306 307 309 311 312 312 312 313 311 311 308 308 308 307 309 310 307 306 305 306 306 306 309 309 311 308 306 306 305 304 303 304 305 305 306
301 304 307 310 308 310 309 309 310 308 308 309 310 311 310 312 310 312 312 309 309 308 308 308 309 307 309 306 305 305 304 305 305 305 306 305 305 304 303 304 304 305 304 304 304
304 305 310 308 310 310 310 310 310 307 306 308 308 308 309 307 310 309 307 307 306 307 308 309 308 307 305 303 303 306 305 305 305 304 304 304 303 302 303 303 304 303 303 304 306
Wind_Speed
33 30 28 25 22 20 17 15 13 12 12 13 12 13 14 18 21 16 15 4 2 5 4 7 8 9 10 13 9 10 11 15 18 18 18 12 15 14 14 16 13 13 13 17 1
35 33 30 28 25 22 19 17 15 13 13 13 12 12 12 15 18 19 11 11 7 6 8 9 9 5 10 9 8 11 13 20 17 14 17 18 20 19 19 21 18 16 14 15 19
37 35 33 30 27 24 21 18 16 14 13 13 11 10 11 13 15 2 4 8 9 4 4 6 7 10 13 13 13 15 18 20 20 19 15 18 19 19 18 22 19 16 15 10 12
40 37 35 33 29 25 22 20 17 15 14 12 10 9 10 8 6 6 6 10 10 5 8 8 9 12 11 14 16 20 18 20 21 16 17 18 20 22 21 23 22 20 18 17 16
42 40 36 34 30 27 23 20 18 16 13 11 9 7 7 11 14 6 8 8 8 10 13 13 14 15 19 14 14 18 19 20 19 15 18 19 21 23 24 24 21 17 15 13 15
44 42 39 36 32 28 24 21 18 15 13 10 7 6 8 15 3 5 6 10 14 15 16 16 14 14 15 18 14 15 17 17 20 23 21 20 21 19 18 19 16 12 10 6 8
47 43 42 37 34 29 25 21 18 15 12 10 7 6 12 19 4 7 8 10 8 7 9 6 8 8 5 12 10 14 18 19 21 23 20 12 17 21 17 6 9 6 3 3 5
50 47 44 39 35 30 26 22 18 15 11 9 6 8 11 10 18 19 16 16 14 14 13 12 8 11 13 12 14 15 19 19 21 6 10 12 18 16 8 2 2 7 14 14 15
52 49 46 42 36 32 27 21 18 14 10 7 5 11 14 6 13 20 20 18 16 12 11 8 11 14 10 14 14 14 16 19 14 13 11 11 13 11 3 13 21 15 14 13 14
53 51 48 43 38 33 28 22 16 11 7 6 12 6 11 11 9 8 11 15 11 10 10 12 10 11 14 14 15 15 21 15 16 11 16 21 21 20 18 18 16 14 15 14 11
53 52 50 46 42 38 34 22 9 3 13 14 14 15 3 9 7 13 15 16 10 15 14 15 12 14 19 19 20 19 19 21 20 18 20 23 22 20 19 18 17 13 8 7 7
57 51 52 49 46 44 39 17 24 3 9 29 26 19 4 5 9 15 20 13 15 20 18 11 17 18 16 19 18 18 20 21 20 18 14 21 31 25 26 24 4 6 9 4 14
51 54 53 51 49 47 42 42 19 20 7 9 30 30 20 12 15 19 18 18 17 21 20 19 11 5 16 17 17 18 20 19 19 18 20 25 32 15 9 9 8 4 16 14 12
56 55 54 51 48 41 38 36 21 7 4 9 13 11 25 17 14 23 27 12 11 20 18 19 22 23 14 17 15 18 15 15 15 14 13 12 19 8 17 7 13 14 11 12 13
37 58 58 63 34 28 18 35 18 7 8 11 13 11 18 25 5 24 27 19 24 21 14 21 14 15 24 24 20 22 17 15 15 15 16 16 12 24 6 13 12 10 9 11 13
38 51 62 57 41 37 31 31 18 7 12 10 14 18 20 24 19 8 24 14 13 22 22 22 16 12 16 13 11 8 8 11 11 11 14 16 15 29 2 6 6 8 11 12 14
40 50 67 57 30 42 47 17 8 10 10 10 14 20 26 19 25 17 21 25 16 16 24 23 23 14 8 11 12 13 12 5 10 11 13 9 13 21 13 13 8 5 8 10 11
41 41 60 52 47 58 37 11 15 16 20 12 17 23 26 21 25 24 22 22 27 20 9 17 13 24 15 20 14 18 16 8 12 13 16 16 20 14 4 10 6 5 11 14 16
43 39 43 47 61 55 18 20 17 12 27 15 21 25 22 25 15 22 24 24 25 19 13 19 9 11 10 10 11 10 10 5 9 13 11 14 22 26 25 4 11 14 15 18 20
39 29 33 46 65 39 20 23 12 20 16 23 25 25 26 31 19 24 24 22 19 18 9 7 7 12 10 8 4 6 1 6 4 4 10 15 20 12 14 15 17 20 21 21 23
32 9 20 54 51 17 23 12 4 6 11 20 26 22 27 31 24 28 26 11 16 15 13 8 6 13 11 12 14 6 9 5 3 8 5 12 13 6 12 17 20 20 21 23 23
13 7 24 52 13 11 23 11 6 10 5 4 8 16 24 25 23 25 20 12 15 16 16 3 4 13 15 4 4 5 5 3 5 7 4 5 15 11 14 13 18 22 23 23 22
8 3 30 37 16 12 5 6 4 7 8 8 5 8 11 18 8 13 10 10 14 13 13 10 6 9 2 5 9 9 7 9 2 2 11 10 11 10 19 19 22 24 22 23 23
5 5 1 7 1 16 12 8 8 5 5 7 7 12 12 6 4 9 10 9 8 9 5 4 6 8 9 2 8 10 14 14 10 7 11 18 23 25 22 22 23 24 22 22 23
3 5 7 13 9 17 15 10 21 9 4 9 6 17 20 8 8 8 13 16 10 7 7 6 8 8 6 6 8 11 15 18 21 20 17 18 23 23 22 23 22 21 23 25 24
5 7 8 19 22 21 11 13 24 9 6 6 13 19 14 10 8 20 17 13 8 11 11 8 4 2 3 10 12 18 18 19 21 22 24 24 24 21 20 18 21 21 23 25 24
5 5 9 18 21 15 11 14 18 15 9 13 23 15 13 10 16 17 14 12 11 16 12 10 6 5 3 9 10 13 18 19 20 21 18 21 19 17 18 18 18 18 21 22 21
Wind_Direction
232 231 233 233 235 239 241 244 249 261 273 285 304 311 316 316 314 302 261 279 243 246 217 240 227 236 237 246 236 243 256 255 265 280 292 297 296 291 294 288 278 289 290 274 100
234 232 232 232 232 235 238 242 247 255 269 284 299 304 312 317 308 283 271 258 223 207 245 225 226 261 243 237 218 234 248 259 277 307 295 305 301 302 297 288 288 280 264 246 259
233 232 231 232 232 230 232 238 243 250 261 278 288 298 310 315 288 230 220 208 174 159 241 251 264 257 267 262 237 243 257 278 291 304 305 300 290 289 291 286 289 303 305 303 294
235 232 231 231 230 229 229 230 237 244 259 271 282 294 301 294 274 103 166 176 191 223 260 254 257 248 256 261 247 251 264 273 276 288 293 284 293 290 286 283 288 286 287 281 275
234 232 230 230 229 226 228 228 230 238 253 263 270 284 294 240 249 189 186 201 218 240 252 263 268 274 265 269 275 273 271 270 276 282 272 281 279 280 280 281 283 287 285 284 273
231 231 228 228 226 225 223 226 231 236 243 243 254 269 254 256 266 183 222 233 243 246 252 255 261 276 286 270 266 280 301 286 278 274 275 275 274 274 272 278 283 281 310 331 299
232 228 227 223 223 221 219 220 228 228 233 228 238 251 256 242 236 214 229 244 243 243 260 241 280 246 310 265 277 284 282 279 267 265 271 295 276 255 265 195 268 296 290 351 279
231 228 225 222 218 216 212 213 222 226 217 220 225 257 260 260 243 243 241 243 238 243 250 259 255 273 277 276 276 267 268 273 270 218 251 269 282 287 14 320 347 270 299 296 288
232 227 223 219 214 209 204 207 215 203 200 206 230 229 259 210 232 239 230 234 236 233 231 232 220 233 235 245 255 239 258 266 274 284 280 258 281 303 283 255 291 292 292 292 289
232 226 222 217 209 201 193 198 171 169 177 224 253 251 243 229 192 187 193 203 190 185 167 200 208 218 220 232 237 234 235 243 268 280 285 286 281 289 284 277 275 275 272 278 283
222 223 219 213 202 192 172 128 127 214 205 207 194 220 342 176 173 191 169 170 175 197 198 200 212 216 221 228 251 274 285 280 282 287 287 285 285 286 284 277 282 284 286 260 274
214 213 216 208 198 193 180 195 192 100 220 225 249 222 233 213 192 208 181 184 184 218 217 183 228 240 237 239 246 251 265 270 279 280 278 288 289 291 277 265 232 243 260 346 48
227 211 208 200 194 191 191 205 204 236 265 237 221 229 218 217 215 190 191 205 206 224 223 230 230 234 240 240 241 249 256 268 282 304 296 283 285 279 109 149 141 77 56 48 22
218 207 196 184 178 190 204 200 209 166 255 232 216 230 220 210 241 225 191 196 220 236 243 257 254 247 221 240 232 244 250 268 273 277 277 326 297 276 279 131 85 58 40 24 4
234 201 184 187 184 193 184 189 183 104 237 192 203 168 187 190 146 199 199 212 229 215 212 227 220 240 242 240 233 254 264 266 267 264 278 261 268 281 159 241 61 45 20 11 344
225 210 186 185 190 187 173 162 131 199 226 213 171 185 179 199 217 134 196 209 235 239 226 248 255 236 248 244 245 259 198 237 247 256 256 248 241 279 308 21 47 26 10 358 352
228 212 183 180 187 170 153 135 180 215 141 207 190 185 190 189 200 177 186 192 190 196 225 232 239 221 241 209 206 191 202 232 225 219 248 248 250 249 303 76 71 23 353 338 354
230 222 191 185 176 157 157 176 213 198 200 179 175 179 193 179 199 187 191 197 214 213 211 206 212 205 190 222 195 207 219 221 248 251 266 270 242 253 317 120 96 356 336 339 339
223 216 207 187 165 162 170 199 204 186 196 208 170 186 195 185 184 188 202 205 202 209 219 190 179 113 182 203 223 189 222 297 287 283 277 271 277 281 273 307 351 339 327 332 331
208 216 205 183 163 171 190 201 203 206 191 199 184 187 190 187 195 189 186 201 184 196 248 217 130 178 164 189 207 259 136 196 214 245 247 258 265 281 342 359 335 324 325 327 327
201 217 183 169 163 184 194 197 128 214 194 198 206 193 207 187 192 193 184 158 152 179 210 178 143 173 159 206 186 181 213 212 283 248 264 276 261 339 351 329 322 324 322 321 316
189 204 168 158 177 192 196 159 105 161 103 129 237 213 210 194 191 191 189 161 168 168 173 105 170 166 196 65 338 302 243 234 201 208 232 274 267 329 309 319 313 307 307 304 312
176 113 175 171 181 180 111 111 137 145 143 151 134 182 214 183 167 121 141 145 145 165 151 175 144 147 242 294 233 236 215 198 119 70 229 239 261 306 317 302 296 297 307 310 323
130 145 110 173 263 169 149 153 121 125 105 123 117 134 126 118 122 145 140 156 145 127 48 127 168 188 195 141 147 191 194 186 191 213 241 239 267 280 289 298 302 303 308 314 308
153 176 168 168 176 163 154 153 136 137 129 153 115 164 154 138 129 147 138 134 160 136 150 148 201 206 248 224 243 237 225 222 214 218 233 262 265 277 289 292 300 312 315 312 314
129 146 190 157 145 146 147 160 153 119 143 166 146 150 156 154 165 152 146 146 155 168 163 147 144 182 248 241 248 257 249 249 248 250 248 269 275 272 282 312 313 317 316 307 307
137 135 140 153 159 149 166 150 138 130 49 131 125 113 114 119 124 130 130 144 159 162 166 166 160 156 230 209 235 260 247 240 248 253 255 259 277 298 300 299 317 303 313 314 324